Regional Weather Roundup
Issued by NWS

Home | Current Version | Previous Version | Graphics & Text | Print | Product List | Glossary Off
Versions: 1 2 3 4 5 6 7 8 9 10 11 12 13 14 15 16 17 18 19 20 21 22 23 24 25 26 27 28 29 30 31 32 33 34 35 36 37 38 39 40 41 42 43 44 45 46 47 48 49 50

000
ASUS43 KDTX 220010
RWRMI
MICHIGAN HOURLY REGIONAL WEATHER ROUNDUP
NATIONAL WEATHER SERVICE DETROIT/PONTIAC MI
800 PM EDT SUN SEP 21 2014

NOTE: "FAIR" INDICATES FEW OR NO CLOUDS BELOW 12,000 FEET WITH NO
SIGNIFICANT WEATHER AND/OR OBSTRUCTION TO VISIBILITY.

MIZ047>049-052>055-059>063-066>070-074>076-081>083-220100-
SOUTHEAST LOWER MICHIGAN

CITY           SKY/WX    TMP DP  RH WIND       PRES   REMARKS
ADRIAN         MOCLDY    55  49  80 N10       29.93R
6HR MIN TEMP:  55; 6HR MAX TEMP:  64; 6HR PCP:  0.02;

ALMA           CLOUDY    51  44  76 NW18G24   29.96R
ANN ARBOR      CLOUDY    53  47  79 N16G24    29.91R
BAD AXE        LGT RAIN  51  51 100 N13       29.88R
6HR MIN TEMP:  50; 6HR MAX TEMP:  56;

DETROIT CITY   CLOUDY    57  49  74 N16G23    29.87R
6HR MIN TEMP:  56; 6HR MAX TEMP:  68; 6HR PCP:  0.07;

DETROIT        MOCLDY    54  49  83 NW21G26   29.88R
6HR MIN TEMP:  54; 6HR MAX TEMP:  64; 6HR PCP:  0.18;

FLINT          CLOUDY    53  49  86 NW10      29.91R
6HR MIN TEMP:  53; 6HR MAX TEMP:  68; 6HR PCP:  0.17;

GROSSE ILE     LGT RAIN  55  52  88 N15G22    29.86R
HILLSDALE      CLOUDY    55  51  86 NW14G25   29.95R
6HR MIN TEMP:  55; 6HR MAX TEMP:  62;

HOWELL         CLOUDY    51  49  92 NW8       29.92R
6HR MIN TEMP:  51; 6HR MAX TEMP:  63;


CITY           SKY/WX    TMP DP  RH WIND       PRES   REMARKS
JACKSON        CLOUDY    53  49  86 N7        29.94R
6HR MIN TEMP:  52; 6HR MAX TEMP:  61; 6HR PCP:  0.10;

LAMBERTVILLE   RAIN      55  52  88 NW10G17   29.90R
LANSING        CLOUDY    54  46  74 NW9G18    29.95R
6HR MIN TEMP:  54; 6HR MAX TEMP:  61; 6HR PCP:  0.13;

LAPEER         NOT AVBL
MASON          CLOUDY    53  48  82 N9G16     29.94R
MONROE         CLOUDY    55  52  88 N14       29.87R
MT. CLEMENS    MOCLDY    52  48  87 NW18G29   29.85R
6HR MIN TEMP:  53; 6HR MAX TEMP:  66; 6HR PCP:  0.07;

PONTIAC        CLOUDY    52  47  83 NW13      29.88R
6HR MIN TEMP:  51; 6HR MAX TEMP:  63; 6HR PCP:  0.12;

PORT HOPE        N/A     53  50  89 VRB3      29.85R
6HR MIN TEMP:  53; 6HR MAX TEMP:  58; 6HR PCP:  0.39;

PORT HURON     CLOUDY    50  48  93 NW12G17   29.85R
TRI CITIES     CLOUDY    53  46  77 NW13      29.94R
6HR MIN TEMP:  53; 6HR MAX TEMP:  65; 6HR PCP:  0.79;

YPSILANTI      MOCLDY    57  49  74 NW17G24   29.89R
6HR MIN TEMP:  57; 6HR MAX TEMP:  68; 6HR PCP:  0.15;

$$
MIZ043>046-050>051-056>058-064>065-071>073-077>080-220100-
SOUTHWEST LOWER MICHIGAN

CITY           SKY/WX    TMP DP  RH WIND       PRES   REMARKS
BATTLE CREEK   CLOUDY    56  47  71 NW16G22   29.98R
6HR MIN TEMP:  56; 6HR MAX TEMP:  63; 6HR PCP:  0.02;

BENTON HARBOR  CLOUDY    55  47  74 VRB5G18   30.03R
6HR MIN TEMP:  55; 6HR MAX TEMP:  60; 6HR PCP: TRACE;

BIG RAPIDS     CLOUDY    47  43  87 NW13G24   30.00R
6HR MIN TEMP:  47; 6HR MAX TEMP:  56; 6HR PCP:  0.01;

COLDWATER      CLOUDY    57  49  73 NW12G18   29.96R
6HR MIN TEMP:  57; 6HR MAX TEMP:  65;

HOLLAND        PTCLDY    54  44  69 VRB7G21   30.03R
6HR MIN TEMP:  53; 6HR MAX TEMP:  62;

GRAND RAPIDS   CLOUDY    52  47  83 NW21G26   30.00R
6HR MIN TEMP:  52; 6HR MAX TEMP:  64; 6HR PCP: TRACE;

KALAMAZOO      MOCLDY    55  47  74 N14       30.00R
6HR MIN TEMP:  55; 6HR MAX TEMP:  64; 6HR PCP: TRACE;

MARSHALL       CLOUDY    55  47  77 NW8       29.96R
MUSKEGON       MOCLDY    51  42  71 N10       30.04R
6HR MIN TEMP:  51; 6HR MAX TEMP:  59; 6HR PCP: TRACE;

$$
MIZ016>042-220100-
NORTHERN LOWER MICHIGAN

CITY           SKY/WX    TMP DP  RH WIND       PRES   REMARKS
ALPENA         CLOUDY    49  41  74 NW12      29.92R
6HR MIN TEMP:  49; 6HR MAX TEMP:  52; 6HR PCP: TRACE;

BEAVER ISLAND  CLOUDY    48  40  74 N13G18    30.03R
6HR MIN TEMP:  47; 6HR MAX TEMP:  51;

BELLAIRE       CLOUDY    48  40  73 NW7       30.02R
6HR MIN TEMP:  48; 6HR MAX TEMP:  54;

CADILLAC       CLOUDY    44  39  84 NW12G28   29.99R
CHARLEVOIX     CLOUDY    49  41  73 N17G30    30.04R
6HR MIN TEMP:  49; 6HR MAX TEMP:  54;

FRANKFORT      CLOUDY    49  39  67 N12G22    30.06R
GAYLORD        CLOUDY    45  37  73 NW10G16   29.97R
6HR MIN TEMP:  45; 6HR MAX TEMP:  51; 6HR PCP: TRACE;

GRAYLING       CLOUDY    48  42  79 NW12G17   29.98R
6HR MIN TEMP:  48; 6HR MAX TEMP:  53;

HARBOR SPRINGS CLOUDY    49  38  68 NW8       30.00R
HOUGHTON LAKE  CLOUDY    47  39  74 NW9G16    29.97R
6HR MIN TEMP:  47; 6HR MAX TEMP:  53; 6HR PCP:  0.01;

MANISTEE       CLOUDY    48  37  66 N13G26    30.06R
OSCODA         CLOUDY    49  46  92 NW12G17   29.90R
PELLSTON       CLOUDY    48  38  68 NW13      30.00R
6HR MIN TEMP:  48; 6HR MAX TEMP:  55;

TRAVERSE CITY  CLOUDY    49  39  68 NW15G23   30.02R
6HR MIN TEMP:  49; 6HR MAX TEMP:  55; 6HR PCP: TRACE;

$$
MIZ007>008-015-220100-
EASTERN UPPER MICHIGAN

CITY           SKY/WX    TMP DP  RH WIND       PRES   REMARKS
KINROSS        CLOUDY    48  39  71 N14G20    29.97R
6HR MIN TEMP:  48; 6HR MAX TEMP:  54;

MACKINAC ISLAN CLOUDY    48  39  72 NW12G20   29.98R
6HR MIN TEMP:  48; 6HR MAX TEMP:  53;

NEWBERRY       CLOUDY    44  38  81 NW12G22   30.02R
S. S. MARIE    CLOUDY    49  36  61 NW13G18   29.97R
6HR MIN TEMP:  49; 6HR MAX TEMP:  54;

$$
MIZ004>006-011>014-085-220100-
CENTRAL UPPER MICHIGAN

CITY           SKY/WX    TMP DP  RH WIND       PRES   REMARKS
MANISTIQUE     CLOUDY    45  38  77 N15G21    30.05R
ESCANABA       CLOUDY    46  36  66 NW8       30.10R
6HR MIN TEMP:  46; 6HR MAX TEMP:  50;

MENOMINEE      CLEAR     48  37  66 N7        30.09R
6HR MIN TEMP:  48; 6HR MAX TEMP:  57;

SAWYER-GWINN   CLOUDY    45  37  76 N12       30.10R
$$
MIZ001>003-009>011-084-220100-
WESTERN UPPER MICHIGAN

CITY           SKY/WX    TMP DP  RH WIND       PRES   REMARKS
IRON MOUNTAIN  CLEAR     46  37  71 NW7       30.09R
6HR MIN TEMP:  46; 6HR MAX TEMP:  53;

HOUGHTON       CLEAR     43  37  79 CALM      30.12R
6HR MIN TEMP:  43; 6HR MAX TEMP:  51;

COPPER HARBOR    N/A     46  40  79 N7        30.11R
6HR MIN TEMP:  45; 6HR MAX TEMP:  48;

IRONWOOD       CLEAR     48  43  81 CALM      30.12R
6HR MIN TEMP:  48; 6HR MAX TEMP:  54;

$$

ABBREVIATIONS USED IN REMARKS
   TC - TEMPERATURE IN CELSIUS
  WCI - WIND CHILL INDEX
   HX - HEAT INDEX
  VSB - VISIBILITY



USA.gov is the U.S. government's official web portal to all federal, state and local government web resources and services.